Salisbury, MD

4:36 AM EDT on June 26, 2017 (GMT -0400)
Salisbury-Ocean City Wicomico Regional

Weather History for KSBY - April, 2013

Change the Weather History Date:

Thursday, April 18, 2013

  Actual Average Record
Temperature  
Mean Temperature 68 °F 55 °F  
Max Temperature 78 °F 66 °F 90 °F (1976)
Min Temperature 57 °F 44 °F 26 °F (1928)
Degree Days  
Heating Degree Days 0 11  
Month to date heating degree days 155 236  
Since 1 July heating degree days 3630 4171  
Cooling Degree Days 3 1  
Month to date cooling degree days 38 5  
Year to date cooling degree days 38 7  
Growing Degree Days 17 (Base 50)    
Moisture  
Dew Point 57 °F    
Average Humidity 67    
Maximum Humidity 87    
Minimum Humidity 47    
Precipitation  
Precipitation 0.00 in 0.11 in 0.84 in (1945)
Month to date precipitation 1.54 2.28  
Year to date precipitation 13.09 13.66  
Snow  
Snow 0.00 in 0.00 in T in (1926)
Month to date snowfall 0.0 0.2  
Since 1 July snowfall 2.8 9.3  
Snow Depth 0.00 in    
Sea Level Pressure  
Sea Level Pressure 30.21 in    
Wind  
Wind Speed 9 mph (SE)    
Max Wind Speed 22 mph    
Max Gust Speed 30 mph    
Visibility 9 miles    
Events      
T = Trace of Precipitation, MM = Missing Value Source: NWS Daily Summary

Daily Weather History Graph

Daily Weather History Graph

Search for Another Location

Airport or City:

Trip Planner

Search our weather history database for the weather conditions in past years. The results will help you decide how hot, cold, wet, or windy it might be!

Date:

Astronomy

Apr. 18, 2013 Rise Set
Actual Time 6:21 AM EDT 7:41 PM EDT
Civil Twilight 5:54 AM EDT 8:09 PM EDT
Nautical Twilight 5:21 AM EDT 8:42 PM EDT
Astronomical Twilight 4:46 AM EDT 9:16 PM EDT
Moon 12:32 PM EDT (4/18) 1:53 AM EDT (4/18)
Length of Visible Light 14h 14m
Length of Day
13h 19m
First Quarter, 51% of the Moon is Illuminated
Apr 18
First Quarter
Apr 25
Full
May 2
Last Quarter
May 9
New
May 18
First Quarter

Hourly Weather History & Observations

Time (EDT) Temp. Dew Point Humidity Pressure Visibility Wind Dir Wind Speed Gust Speed Precip Events Conditions
12:54 AM 59.0 °F 54.0 °F 83% 30.25 in 5.0 mi East 9.2 mph - N/A   Haze
1:22 AM 57.2 °F 53.6 °F 88% 30.24 in 5.0 mi East 8.1 mph - N/A   Haze
1:39 AM 57.2 °F 53.6 °F 88% 30.24 in 5.0 mi ESE 6.9 mph - N/A   Haze
2:54 AM 57.0 °F 53.1 °F 87% 30.24 in 6.0 mi ESE 5.8 mph - N/A   Overcast
3:05 AM 57.2 °F 53.6 °F 88% 30.24 in 7.0 mi East 4.6 mph - N/A   Overcast
3:54 AM 57.9 °F 52.0 °F 81% 30.24 in 8.0 mi East 4.6 mph - N/A   Overcast
4:37 AM 57.2 °F 51.8 °F 82% 30.22 in 7.0 mi East 9.2 mph - N/A   Overcast
4:54 AM 57.0 °F 53.1 °F 87% 30.24 in 7.0 mi East 6.9 mph - N/A   Overcast
5:54 AM 57.9 °F 54.0 °F 87% 30.24 in 5.0 mi ESE 8.1 mph - N/A   Overcast
6:54 AM 59.0 °F 55.0 °F 87% 30.25 in 6.0 mi ESE 8.1 mph - N/A   Overcast
7:54 AM 61.0 °F 55.0 °F 81% 30.26 in 8.0 mi SE 6.9 mph - N/A   Overcast
8:54 AM 63.0 °F 55.9 °F 78% 30.26 in 9.0 mi SE 8.1 mph - N/A   Overcast
9:54 AM 64.9 °F 57.0 °F 75% 30.27 in 10.0 mi Variable 5.8 mph - N/A   Overcast
10:15 AM 66.2 °F 57.2 °F 73% 30.27 in 10.0 mi ESE 9.2 mph - N/A   Overcast
10:54 AM 69.1 °F 59.0 °F 70% 30.27 in 10.0 mi SE 10.4 mph - N/A   Mostly Cloudy
11:50 AM 71.6 °F 59.0 °F 64% 30.25 in 10.0 mi SSE 5.8 mph - N/A   Scattered Clouds
11:54 AM 73.0 °F 59.0 °F 61% 30.25 in 10.0 mi SE 6.9 mph - N/A   Partly Cloudy
12:24 PM 73.4 °F 60.8 °F 65% 30.23 in 10.0 mi SE 10.4 mph - N/A   Mostly Cloudy
12:54 PM 75.0 °F 59.0 °F 57% 30.22 in 10.0 mi SSE 9.2 mph - N/A   Mostly Cloudy
1:19 PM 75.2 °F 59.0 °F 57% 30.20 in 10.0 mi Variable 5.8 mph - N/A   Scattered Clouds
1:54 PM 75.9 °F 59.0 °F 56% 30.20 in 10.0 mi SSE 12.7 mph - N/A   Scattered Clouds
2:54 PM 75.9 °F 59.0 °F 56% 30.19 in 10.0 mi SE 13.8 mph 19.6 mph N/A   Mostly Cloudy
3:54 PM 77.0 °F 57.0 °F 50% 30.17 in 10.0 mi South 13.8 mph 23.0 mph N/A   Partly Cloudy
4:54 PM 77.0 °F 55.9 °F 48% 30.15 in 10.0 mi South 12.7 mph 20.7 mph N/A   Clear
5:54 PM 73.9 °F 55.9 °F 53% 30.14 in 10.0 mi South 17.3 mph 26.5 mph N/A   Clear
6:54 PM 71.1 °F 57.9 °F 63% 30.14 in 10.0 mi South 9.2 mph 17.3 mph N/A   Clear
7:54 PM 68.0 °F 57.9 °F 70% 30.13 in 10.0 mi SSE 6.9 mph 16.1 mph N/A   Clear
8:54 PM 66.0 °F 59.0 °F 78% 30.13 in 10.0 mi SE 9.2 mph - N/A   Clear
9:54 PM 64.9 °F 59.0 °F 81% 30.13 in 10.0 mi SSE 10.4 mph - N/A   Clear
10:54 PM 64.0 °F 59.0 °F 84% 30.11 in 10.0 mi SSE 6.9 mph - N/A   Clear
11:54 PM 63.0 °F 57.9 °F 84% 30.09 in 10.0 mi SSE 5.8 mph - N/A   Clear